Regional Weather Roundup
Issued by NWS

Home | Current Version | Previous Version | Text Only | Print | Product List | Glossary On
Versions: 1 2 3 4 5 6 7 8 9 10 11 12 13 14 15 16 17 18 19 20 21 22 23 24 25 26 27 28 29 30 31 32 33 34 35 36 37 38 39 40 41 42 43 44 45 46 47 48 49 50
000
ASUS44 KFWD 181010
RWRTX
NORTH TEXAS HOURLY WEATHER ROUNDUP
NATIONAL WEATHER SERVICE FORT WORTH TX
400 AM CST SAT NOV 18 2017

NOTE: "FAIR" INDICATES FEW OR NO CLOUDS BELOW 12,000 FEET WITH NO
SIGNIFICANT WEATHER AND/OR OBSTRUCTIONS TO VISIBILITY.

TXZ118-119-181100-
DALLAS/FORT WORTH METROPLEX

CITY           SKY/WX    TMP DP  RH WIND       PRES   REMARKS
DFW AIRPORT    CLOUDY    70  64  81 S12       29.66F
DALLAS LOVE    PTCLDY    71  65  81 S10       29.68F
FTW MEACHAM    CLOUDY    71  65  81 S13       29.67S
DAL-EXECUTIVE  CLOUDY    71  67  87 SW10G17   29.68R
FTW-ALLIANCE   CLOUDY    69  64  84 SW5       29.67S
FTW-NAS-JRB    CLOUDY    68  63  84 S9        29.68S
FTW-SPINKS     CLEAR     68  63  83 S9        29.71F
ARLINGTON      CLEAR     69  65  86 S8        29.69S
GRAND PRAIRIE  CLEAR     69  63  81 S10G16    29.70F
ADDISON        PTCLDY    69  64  86 S9G17     29.70S
MESQUITE       CLOUDY    71  66  85 S14       29.69F
LANCASTER      CLOUDY    71  66  85 SW12      29.70S
$$

TXZ091>094-102>105-117-120-121-131>134-181100-
NORTH CENTRAL TEXAS

CITY           SKY/WX    TMP DP  RH WIND       PRES   REMARKS
SHRMAN/DENISON MOCLDY    69  64  83 S21       29.63S
GAINESVILLE    MOCLDY    67  61  80 SW12      29.66S
BOWIE          MOCLDY    71  61  70 SW17G29   29.67R
DECATUR        PTCLDY    72  61  68 SW13G18   29.67R
DENTON         PTCLDY    68  64  87 SW12      29.66S
MCKINNEY       PTCLDY    69  66  90 S13       29.66F
BONHAM         PTCLDY   N/A N/A N/A S21G29    29.63F
GREENVILLE     CLOUDY    73  68  83 S16G25    29.69F
ROCKWALL       MOCLDY    71  68  90 S14G29    29.70S
TERRELL        CLOUDY    73  66  78 S15G24    29.70S
WAXAHACHIE     MOCLDY    69  68  96 SW8G18    29.72R
CLEBURNE       PTCLDY    68  66  94 SW7       29.73R
GRANBURY       PTCLDY    73  63  70 SW8       29.70S
$$

TXZ083>090-098>101-113>116-127>130-139>142-154-155-181100-
WESTERN NORTH TEXAS

CITY           SKY/WX    TMP DP  RH WIND       PRES   REMARKS
WICHITA FALLS  MOCLDY    70  57  63 SW18      29.63R
WF-KICKAPOO    PTCLDY    70  59  67 SW10G18   29.67S
VERNON         CLOUDY    65  45  48 SW8       29.66R
ABILENE        CLEAR     65  62  90 SW18      29.73S
ABILENE-DYESS  CLEAR     68  61  78 S16G24    29.73R
GRAHAM           N/A     68  62  79 SW5       29.70R
BRECKENRIDGE   CLOUDY    71  60  70 SW15G22   29.70S HAZE
CISCO          CLOUDY    68  61  77 SW17G24   29.74S
EASTLAND       CLEAR     68  60  76 MISG      29.73R
RANGER         CLEAR     67  61  80 SW12G17   29.73S
MINERAL WELLS  PTCLDY    71  61  70 SW12G20   29.68R
STEPHENVILLE   CLOUDY    69  61  77 SW12      29.75S
COMANCHE       CLOUDY    68  63  82 SW20G30   29.73S
BROWNWOOD      CLEAR     64  61  88 S6        29.77R
COLEMAN        CLOUDY    66  59  76 SW10      29.77S
$$

TXZ143>147-156>162-174-175-181100-
CENTRAL TEXAS

CITY           SKY/WX    TMP DP  RH WIND       PRES   REMARKS
WACO           CLOUDY    71  67  87 S14       29.74S
WACO-MCGREGOR  CLOUDY    71  67  87 S14       29.74F
HILLSBORO      CLEAR     70  68  93 S16       29.71F
CORSICANA      CLOUDY    73  67  81 SW23G32   29.74S
MEXIA          CLOUDY    72  66  82 S17G35    29.74S
HEARNE         CLOUDY    72  68  87 S15       29.79F
CAMERON        CLOUDY    72  66  82 S14G23    29.77F
TEMPLE         CLOUDY    72  67  84 S16       29.76F
KILLEEN        CLEAR     69  66  90 SW10G18   29.75S
KILLEEN-SKYLRK CLEAR     70  67  90 SW10G20   29.76S
FORT HOOD      CLEAR     67  65  91 S9        29.72F
GATESVILLE     CLEAR     70  66  88 S8        29.77F
HAMILTON       PTCLDY    69  64  83 SW21G26   29.75S
LAMPASAS       CLEAR     71  68  91 SW8       29.77S FOG
$$

TXZ095>097-106>112-122>126-135>138-148>153-164>167-181100-
EAST TEXAS

CITY           SKY/WX    TMP DP  RH WIND       PRES   REMARKS
PARIS          MOCLDY    70  66  87 S21G30    29.64F
SULPHUR SPRNGS CLOUDY    72  66  81 SW17G26   29.70F
MOUNT PLEASANT MOCLDY    71  65  81 S12       29.72S
GILMER         CLOUDY    71  65  82 S8G21     29.73S
MINEOLA        CLOUDY    72  66  83 S13G22    29.71S
TYLER          CLOUDY    71  66  84 SW22G30   29.73S
LONGVIEW       NOT AVBL
MARSHALL       CLOUDY    70  64  82 S10G16    29.76F
ATHENS         CLOUDY    68  63  83 SW9G22    29.73F
PALESTINE      CLOUDY    71  66  84 S13       29.77F
JACKSONVILLE   CLOUDY    70  66  88 SW10G23   29.78S
HENDERSON      CLOUDY    70  65  83 S8G17     29.76F
CENTER         CLOUDY    70  64  80 S13G21    29.79S
NACOGDOCHES    CLOUDY    71  66  84 S16G25    29.79F
LUFKIN         CLOUDY    70  66  87 S16       29.79F
$$

SUPPLEMENTAL OBSERVATIONS (NWS FORT WORTH AREA)

CITY           SKY/WX    TMP DP  RH WIND       PRES   REMARKS
POSSUM KINGDOM   N/A     70  59  68 SW13G24     N/A
GRANBURY         N/A     72  61  68 SW12G22     N/A
TEMPLE           N/A     72  64  78 S15G26      N/A
$$

SUPPLEMENTAL OBSERVATIONS (NWS NORMAN AREA)

CITY           SKY/WX    TMP DP  RH WIND       PRES   REMARKS
GOODLETT         N/A     73  38  27 W20G25    29.66S
ODELL            N/A     64  38  39 SW14      29.66S
CROWELL          N/A     66  43  42 W8        29.70R
KNOX CITY        N/A     66  52  61 SW13      29.72R
SEYMOUR          N/A     67  54  61 SW15      29.69S
MILLERS CREEK    N/A     68  57  68 SW13        N/A
$$

SUPPLEMENTAL OBSERVATIONS (NWS SAN ANGELO AREA)

CITY           SKY/WX    TMP DP  RH WIND       PRES   REMARKS
WEINERT          N/A     65  57  74 SW12      29.73R
HASKELL          N/A     62  55  76 SW8       29.74R
THROCKMORTON     N/A     65  60  84 SW9       29.73S
STAMFORD         N/A     63  58  84 W6        29.74R
CLYDE            N/A     66  61  84 SW18      29.75S
HAMBY            N/A     66  59  77 SW17G23     N/A
$$

SUPPLEMENTAL OBSERVATIONS (NWS SHREVEPORT AREA)

CITY           SKY/WX    TMP DP  RH WIND       PRES   REMARKS
TEXARKANA        N/A     70  64  83 S8G16       N/A
LINDEN           N/A     72  64  78 S6G15       N/A
LUFKIN           N/A     72  66  83 MISG        N/A
$$

SUPPLEMENTAL OBSERVATIONS ARE A COLLECTION OF AUTOMATED INSTRUMENTS
THAT ARE MAINTAINED BY A VARIETY OF FEDERAL AND STATE AGENCIES.
CERTAIN ELEMENTS...SUCH AS HUMIDITY VALUES AND SUSTAINED WIND
SPEEDS...MAY BE APPROXIMATED.




USA.gov is the U.S. government's official web portal to all federal, state and local government web resources and services.